"datetime","temp","dp","rain_mm","uv","solar","mb","wind_mph","gust_mph","windchill","rh"
"2023-11-05 00:00:00",8.7,7.9,0.0,0.0,0,964.4,0,1,"",95
"2023-11-05 00:01:00",8.7,7.9,0.0,0.0,0,964.4,0,1,"",95
"2023-11-05 00:02:00",8.7,7.9,0.0,0.0,0,964.4,0,1,"",95
"2023-11-05 00:03:00",8.6,7.8,0.0,0.0,0,964.5,0,1,"",95
"2023-11-05 00:04:00",8.6,7.8,0.0,0.0,0,964.4,0,0,"",95
"2023-11-05 00:05:00",8.6,7.8,0.0,0.0,0,964.5,0,0,"",95
"2023-11-05 00:06:00",8.6,7.8,0.0,0.0,0,964.4,0,0,"",95
"2023-11-05 00:07:00",8.6,7.8,0.0,0.0,0,964.5,0,1,"",95
"2023-11-05 00:08:00",8.5,7.7,0.0,0.0,0,964.5,1,1,"",95
"2023-11-05 00:09:00",8.5,7.7,0.0,0.0,0,964.5,1,2,"",95
"2023-11-05 00:10:00",8.5,7.7,0.0,0.0,0,964.5,0,1,"",95
"2023-11-05 00:11:00",8.4,7.6,0.0,0.0,0,964.5,1,1,"",95
"2023-11-05 00:12:00",8.4,7.6,0.0,0.0,0,964.5,1,1,"",95
"2023-11-05 00:13:00",8.4,7.6,0.0,0.0,0,964.5,0,1,"",95
"2023-11-05 00:14:00",8.4,7.6,0.0,0.0,0,964.5,1,1,"",95
"2023-11-05 00:15:00",8.4,7.6,0.0,0.0,0,964.5,0,1,"",95
"2023-11-05 00:16:00",8.3,7.5,0.0,0.0,0,964.5,0,0,"",95
"2023-11-05 00:17:00",8.3,7.5,0.0,0.0,0,964.5,0,1,"",95
"2023-11-05 00:18:00",8.3,7.5,0.0,0.0,0,964.5,0,1,"",95
"2023-11-05 00:19:00",8.3,7.5,0.0,0.0,0,964.6,0,1,"",95
"2023-11-05 00:20:00",8.2,7.4,0.0,0.0,0,964.5,0,1,"",95
"2023-11-05 00:21:00",8.2,7.4,0.0,0.0,0,964.6,0,0,"",95
"2023-11-05 00:22:00",8.2,7.4,0.0,0.0,0,964.6,0,0,"",95
"2023-11-05 00:23:00",8.2,7.4,0.0,0.0,0,964.6,0,0,"",95
"2023-11-05 00:24:00",8.1,7.3,0.0,0.0,0,964.6,0,0,"",95
"2023-11-05 00:25:00",8.1,7.3,0.0,0.0,0,964.6,0,0,"",95
"2023-11-05 00:26:00",8.1,7.3,0.0,0.0,0,964.6,0,0,"",95
"2023-11-05 00:27:00",8.1,7.3,0.0,0.0,0,964.6,0,0,"",95
"2023-11-05 00:28:00",8.1,7.3,0.0,0.0,0,964.6,0,0,"",95
"2023-11-05 00:29:00",8.1,7.3,0.0,0.0,0,964.6,0,0,"",95
"2023-11-05 00:30:00",8.0,7.2,0.0,0.0,0,964.7,0,1,"",95
"2023-11-05 00:31:00",8.0,7.2,0.0,0.0,0,964.7,0,0,"",95
"2023-11-05 00:32:00",7.9,7.1,0.0,0.0,0,964.7,0,0,"",95
"2023-11-05 00:33:00",7.9,7.1,0.0,0.0,0,964.7,0,0,"",95
"2023-11-05 00:34:00",7.9,7.1,0.0,0.0,0,964.8,0,0,"",95
"2023-11-05 00:35:00",7.9,7.1,0.0,0.0,0,964.7,0,0,"",95
"2023-11-05 00:36:00",7.9,7.1,0.0,0.0,0,964.8,0,0,"",95
"2023-11-05 00:37:00",7.9,7.1,0.0,0.0,0,964.8,0,0,"",95
"2023-11-05 00:38:00",7.9,7.1,0.0,0.0,0,964.8,0,0,"",95
"2023-11-05 00:39:00",7.8,7.0,0.0,0.0,0,964.8,0,0,"",95
"2023-11-05 00:40:00",7.8,7.0,0.0,0.0,0,964.8,0,0,"",95
"2023-11-05 00:41:00",7.8,7.0,0.0,0.0,0,964.8,0,0,"",95
"2023-11-05 00:42:00",7.8,7.0,0.0,0.0,0,964.9,0,0,"",95
"2023-11-05 00:43:00",7.8,7.0,0.0,0.0,0,964.9,0,0,"",95
"2023-11-05 00:44:00",7.7,6.9,0.0,0.0,0,964.9,0,1,"",95
"2023-11-05 00:45:00",7.8,7.0,0.0,0.0,0,964.9,0,1,"",95
"2023-11-05 00:46:00",7.7,6.9,0.0,0.0,0,965.0,0,1,"",95
"2023-11-05 00:47:00",7.7,6.9,0.0,0.0,0,965.0,0,1,"",95
"2023-11-05 00:48:00",7.7,6.9,0.0,0.0,0,965.0,0,1,"",95
"2023-11-05 00:49:00",7.7,6.9,0.0,0.0,0,965.0,0,1,"",95
"2023-11-05 00:50:00",7.7,6.9,0.0,0.0,0,965.0,0,0,"",95
"2023-11-05 00:51:00",7.6,6.9,0.0,0.0,0,965.1,0,0,"",95
"2023-11-05 00:52:00",7.6,6.9,0.0,0.0,0,965.1,0,1,"",95
"2023-11-05 00:53:00",7.6,6.9,0.0,0.0,0,965.1,0,1,"",95
"2023-11-05 00:54:00",7.6,6.9,0.0,0.0,0,965.1,1,1,"",95
"2023-11-05 00:55:00",7.6,6.9,0.0,0.0,0,965.2,1,1,"",95
"2023-11-05 00:56:00",7.6,6.9,0.0,0.0,0,965.2,1,1,"",95
"2023-11-05 00:57:00",7.6,6.9,0.0,0.0,0,965.2,0,1,"",95
"2023-11-05 00:58:00",7.6,6.9,0.0,0.0,0,965.2,0,0,"",95
"2023-11-05 00:59:00",7.5,6.8,0.0,0.0,0,965.2,0,1,"",95
"2023-11-05 01:00:00",7.5,6.8,0.0,0.0,0,965.2,0,1,"",95
"2023-11-05 01:01:00",7.5,6.8,0.0,0.0,0,965.2,0,1,"",95
"2023-11-05 01:02:00",7.4,6.7,0.0,0.0,0,965.2,1,1,"",95
"2023-11-05 01:03:00",7.4,6.7,0.0,0.0,0,965.3,0,0,"",95
"2023-11-05 01:04:00",7.4,6.7,0.0,0.0,0,965.3,0,0,"",95
"2023-11-05 01:05:00",7.4,6.7,0.0,0.0,0,965.3,0,1,"",95
"2023-11-05 01:06:00",7.4,6.7,0.0,0.0,0,965.3,0,0,"",95
"2023-11-05 01:07:00",7.4,6.7,0.0,0.0,0,965.4,0,0,"",95
"2023-11-05 01:08:00",7.4,6.7,0.0,0.0,0,965.4,0,0,"",95
"2023-11-05 01:09:00",7.3,6.6,0.0,0.0,0,965.4,0,1,"",95
"2023-11-05 01:10:00",7.3,6.6,0.0,0.0,0,965.4,0,0,"",95
"2023-11-05 01:11:00",7.3,6.6,0.0,0.0,0,965.4,0,0,"",95
"2023-11-05 01:12:00",7.3,6.6,0.0,0.0,0,965.4,0,0,"",95
"2023-11-05 01:13:00",7.3,6.6,0.0,0.0,0,965.5,0,1,"",95
"2023-11-05 01:14:00",7.3,6.6,0.0,0.0,0,965.4,0,0,"",95
"2023-11-05 01:15:00",7.3,6.6,0.0,0.0,0,965.4,0,1,"",95
"2023-11-05 01:16:00",7.2,6.5,0.0,0.0,0,965.5,0,1,"",95
"2023-11-05 01:17:00",7.2,6.5,0.0,0.0,0,965.4,0,1,"",95
"2023-11-05 01:18:00",7.2,6.5,0.0,0.0,0,965.5,0,1,"",95
"2023-11-05 01:19:00",7.2,6.5,0.0,0.0,0,965.5,0,1,"",95
"2023-11-05 01:20:00",7.2,6.5,0.0,0.0,0,965.5,0,1,"",95
"2023-11-05 01:21:00",7.2,6.5,0.0,0.0,0,965.5,0,1,"",95
"2023-11-05 01:22:00",7.2,6.5,0.0,0.0,0,965.5,0,1,"",95
"2023-11-05 01:23:00",7.2,6.5,0.0,0.0,0,965.5,1,1,"",95
"2023-11-05 01:24:00",7.1,6.4,0.0,0.0,0,965.6,1,1,"",95
"2023-11-05 01:25:00",7.1,6.4,0.0,0.0,0,965.6,1,1,"",95
"2023-11-05 01:26:00",7.1,6.4,0.0,0.0,0,965.6,0,1,"",95
"2023-11-05 01:27:00",7.1,6.4,0.0,0.0,0,965.6,1,1,"",95
"2023-11-05 01:28:00",7.1,6.4,0.0,0.0,0,965.7,0,0,"",95
"2023-11-05 01:29:00",7.1,6.4,0.0,0.0,0,965.7,0,0,"",95
"2023-11-05 01:30:00",7.1,6.4,0.0,0.0,0,965.7,0,0,"",95
"2023-11-05 01:31:00",7.1,6.4,0.0,0.0,0,965.7,0,1,"",95
"2023-11-05 01:32:00",7.0,6.3,0.0,0.0,0,965.7,0,0,"",95
"2023-11-05 01:33:00",7.0,6.3,0.0,0.0,0,965.7,0,1,"",95
"2023-11-05 01:34:00",6.9,6.2,0.0,0.0,0,965.8,0,1,"",95
"2023-11-05 01:35:00",6.9,6.2,0.0,0.0,0,965.8,0,0,"",95
"2023-11-05 01:36:00",6.9,6.2,0.0,0.0,0,965.8,0,1,"",95
"2023-11-05 01:37:00",6.9,6.2,0.0,0.0,0,965.9,0,0,"",95
"2023-11-05 01:38:00",6.9,6.2,0.0,0.0,0,965.9,0,0,"",95
"2023-11-05 01:39:00",6.9,6.2,0.0,0.0,0,965.9,0,0,"",95
"2023-11-05 01:40:00",6.9,6.2,0.0,0.0,0,966.0,0,0,"",95
"2023-11-05 01:41:00",6.8,6.1,0.0,0.0,0,966.0,0,0,"",95
"2023-11-05 01:42:00",6.8,6.1,0.0,0.0,0,966.0,0,1,"",95
"2023-11-05 01:43:00",6.8,6.1,0.0,0.0,0,966.0,1,1,"",95
"2023-11-05 01:44:00",6.8,6.1,0.0,0.0,0,966.0,1,2,"",95
"2023-11-05 01:45:00",6.8,6.1,0.0,0.0,0,966.0,1,2,"",95
"2023-11-05 01:46:00",6.8,6.1,0.0,0.0,0,966.0,1,2,"",95
"2023-11-05 01:47:00",6.8,6.1,0.0,0.0,0,966.1,1,1,"",95
"2023-11-05 01:48:00",6.8,6.1,0.0,0.0,0,966.1,1,2,"",95
"2023-11-05 01:49:00",6.8,6.1,0.0,0.0,0,966.1,1,1,"",95
"2023-11-05 01:50:00",6.7,6.0,0.0,0.0,0,966.1,1,2,"",95
"2023-11-05 01:51:00",6.7,6.0,0.0,0.0,0,966.1,1,2,"",95
"2023-11-05 01:52:00",6.7,6.0,0.0,0.0,0,966.1,1,2,"",95
"2023-11-05 01:53:00",6.7,6.0,0.0,0.0,0,966.1,1,1,"",95
"2023-11-05 01:54:00",6.7,6.0,0.0,0.0,0,966.2,1,1,"",95
"2023-11-05 01:55:00",6.7,6.0,0.0,0.0,0,966.2,1,2,"",95
"2023-11-05 01:56:00",6.7,6.0,0.0,0.0,0,966.3,0,1,"",95
"2023-11-05 01:57:00",6.7,6.0,0.0,0.0,0,966.3,1,2,"",95
"2023-11-05 01:58:00",6.6,5.9,0.0,0.0,0,966.3,1,1,"",95
"2023-11-05 01:59:00",6.6,5.9,0.0,0.0,0,966.3,1,1,"",95
"2023-11-05 02:00:00",6.6,5.9,0.0,0.0,0,966.3,1,2,"",95
"2023-11-05 02:01:00",6.6,5.9,0.0,0.0,0,966.4,1,1,"",95
"2023-11-05 02:02:00",6.6,5.9,0.0,0.0,0,966.4,0,1,"",95
"2023-11-05 02:03:00",6.6,5.9,0.0,0.0,0,966.4,1,2,"",95
"2023-11-05 02:04:00",6.6,5.9,0.0,0.0,0,966.4,1,1,"",95
"2023-11-05 02:05:00",6.6,5.9,0.0,0.0,0,966.5,0,1,"",95
"2023-11-05 02:06:00",6.5,5.8,0.0,0.0,0,966.5,1,2,"",95
"2023-11-05 02:07:00",6.5,5.8,0.0,0.0,0,966.6,1,1,"",95
"2023-11-05 02:08:00",6.5,5.8,0.0,0.0,0,966.6,1,1,"",95
"2023-11-05 02:09:00",6.5,5.8,0.0,0.0,0,966.6,1,1,"",95
"2023-11-05 02:10:00",6.4,5.7,0.0,0.0,0,966.6,1,1,"",95
"2023-11-05 02:11:00",6.5,5.8,0.0,0.0,0,966.6,1,1,"",95
"2023-11-05 02:12:00",6.4,5.7,0.0,0.0,0,966.6,1,2,"",95
"2023-11-05 02:13:00",6.4,5.7,0.0,0.0,0,966.7,1,2,"",95
"2023-11-05 02:14:00",6.4,5.7,0.0,0.0,0,966.7,1,2,"",95
"2023-11-05 02:15:00",6.4,5.7,0.0,0.0,0,966.7,1,1,"",95
"2023-11-05 02:16:00",6.4,5.7,0.0,0.0,0,966.7,1,2,"",95
"2023-11-05 02:17:00",6.4,5.7,0.0,0.0,0,966.8,1,2,"",95
"2023-11-05 02:18:00",6.4,5.7,0.0,0.0,0,966.8,1,2,"",95
"2023-11-05 02:19:00",6.3,5.6,0.0,0.0,0,966.8,1,1,"",95
"2023-11-05 02:20:00",6.3,5.6,0.0,0.0,0,966.9,1,1,"",95
"2023-11-05 02:21:00",6.3,5.6,0.0,0.0,0,966.9,1,2,"",95
"2023-11-05 02:22:00",6.4,5.7,0.0,0.0,0,966.9,1,2,"",95
"2023-11-05 02:23:00",6.3,5.6,0.0,0.0,0,966.9,0,1,"",95
"2023-11-05 02:24:00",6.3,5.6,0.0,0.0,0,966.9,1,1,"",95
"2023-11-05 02:25:00",6.3,5.6,0.0,0.0,0,967.0,1,1,"",95
"2023-11-05 02:26:00",6.3,5.6,0.0,0.0,0,966.9,1,2,"",95
"2023-11-05 02:27:00",6.3,5.6,0.0,0.0,0,967.0,1,1,"",95
"2023-11-05 02:28:00",6.3,5.6,0.0,0.0,0,967.0,1,1,"",95
"2023-11-05 02:29:00",6.3,5.6,0.0,0.0,0,967.0,1,2,"",95
"2023-11-05 02:30:00",6.3,5.6,0.0,0.0,0,967.1,1,2,"",95
"2023-11-05 02:31:00",6.3,5.6,0.0,0.0,0,967.0,1,2,"",95
"2023-11-05 02:32:00",6.3,5.6,0.0,0.0,0,967.1,1,2,"",95
"2023-11-05 02:33:00",6.3,5.6,0.0,0.0,0,967.1,1,2,"",95
"2023-11-05 02:34:00",6.3,5.6,0.0,0.0,0,967.2,0,1,"",95
"2023-11-05 02:35:00",6.3,5.6,0.0,0.0,0,967.2,1,1,"",95
"2023-11-05 02:36:00",6.3,5.6,0.0,0.0,0,967.2,0,1,"",95
"2023-11-05 02:37:00",6.3,5.6,0.0,0.0,0,967.3,1,1,"",95
"2023-11-05 02:38:00",6.3,5.6,0.0,0.0,0,967.3,1,2,"",95
"2023-11-05 02:39:00",6.3,5.6,0.0,0.0,0,967.2,1,3,"",95
"2023-11-05 02:40:00",6.3,5.6,0.0,0.0,0,967.3,1,2,"",95
"2023-11-05 02:41:00",6.3,5.6,0.0,0.0,0,967.3,1,2,"",95
"2023-11-05 02:42:00",6.3,5.6,0.0,0.0,0,967.2,1,2,"",95
"2023-11-05 02:43:00",6.3,5.6,0.0,0.0,0,967.3,1,2,"",95
"2023-11-05 02:44:00",6.3,5.6,0.0,0.0,0,967.3,1,2,"",95
"2023-11-05 02:45:00",6.4,5.7,0.0,0.0,0,967.3,1,2,"",95
"2023-11-05 02:46:00",6.3,5.6,0.0,0.0,0,967.4,1,2,"",95
"2023-11-05 02:47:00",6.4,5.7,0.0,0.0,0,967.4,1,3,"",95
"2023-11-05 02:48:00",6.4,5.7,0.0,0.0,0,967.3,1,2,"",95
"2023-11-05 02:49:00",6.4,5.7,0.0,0.0,0,967.4,0,1,"",95
"2023-11-05 02:50:00",6.4,5.7,0.0,0.0,0,967.5,0,1,"",95
"2023-11-05 02:51:00",6.5,5.8,0.0,0.0,0,967.5,0,1,"",95
"2023-11-05 02:52:00",6.5,5.8,0.0,0.0,0,967.5,1,2,"",95
"2023-11-05 02:53:00",6.5,5.8,0.0,0.0,0,967.5,0,1,"",95
"2023-11-05 02:54:00",6.5,5.8,0.0,0.0,0,967.5,1,3,"",95
"2023-11-05 02:55:00",6.6,5.9,0.0,0.0,0,967.5,1,3,"",95
"2023-11-05 02:56:00",6.6,5.9,0.0,0.0,0,967.6,0,1,"",95
"2023-11-05 02:57:00",6.6,5.9,0.0,0.0,0,967.6,1,2,"",95
"2023-11-05 02:58:00",6.6,5.9,0.0,0.0,0,967.6,1,1,"",95
"2023-11-05 02:59:00",6.6,5.9,0.0,0.0,0,967.6,0,1,"",95
"2023-11-05 03:00:00",6.6,5.9,0.0,0.0,0,967.6,1,2,"",95
"2023-11-05 03:01:00",6.6,5.9,0.0,0.0,0,967.6,1,2,"",95
"2023-11-05 03:02:00",6.6,5.9,0.0,0.0,0,967.6,0,1,"",95
"2023-11-05 03:03:00",6.7,6.0,0.0,0.0,0,967.6,0,1,"",95
"2023-11-05 03:04:00",6.7,6.0,0.0,0.0,0,967.7,1,2,"",95
"2023-11-05 03:05:00",6.7,6.0,0.0,0.0,0,967.7,1,3,"",95
"2023-11-05 03:06:00",6.7,6.0,0.0,0.0,0,967.8,0,1,"",95
"2023-11-05 03:07:00",6.8,6.1,0.0,0.0,0,967.8,0,0,"",95
"2023-11-05 03:08:00",6.8,6.1,0.0,0.0,0,967.7,0,1,"",95
"2023-11-05 03:09:00",6.8,6.1,0.0,0.0,0,967.8,1,2,"",95
"2023-11-05 03:10:00",6.8,6.1,0.0,0.0,0,967.8,1,2,"",95
"2023-11-05 03:11:00",6.8,6.1,0.0,0.0,0,967.8,1,2,"",95
"2023-11-05 03:12:00",6.8,6.1,0.0,0.0,0,967.9,1,2,"",95
"2023-11-05 03:13:00",6.9,6.2,0.0,0.0,0,967.9,1,2,"",95
"2023-11-05 03:14:00",6.9,6.2,0.0,0.0,0,967.9,1,2,"",95
"2023-11-05 03:15:00",6.9,6.2,0.0,0.0,0,967.9,1,2,"",95
"2023-11-05 03:16:00",6.9,6.2,0.0,0.0,0,967.9,0,1,"",95
"2023-11-05 03:17:00",7.0,6.3,0.0,0.0,0,967.9,0,1,"",95
"2023-11-05 03:18:00",7.0,6.3,0.0,0.0,0,968.0,1,2,"",95
"2023-11-05 03:19:00",6.9,6.2,0.0,0.0,0,968.0,1,1,"",95
"2023-11-05 03:20:00",7.0,6.3,0.0,0.0,0,968.0,0,1,"",95
"2023-11-05 03:21:00",7.1,6.4,0.0,0.0,0,968.0,1,1,"",95
"2023-11-05 03:22:00",7.1,6.4,0.0,0.0,0,968.1,0,2,"",95
"2023-11-05 03:23:00",7.1,6.4,0.0,0.0,0,968.1,1,2,"",95
"2023-11-05 03:24:00",7.1,6.4,0.0,0.0,0,968.1,1,1,"",95
"2023-11-05 03:25:00",7.1,6.4,0.0,0.0,0,968.1,0,1,"",95
"2023-11-05 03:26:00",7.1,6.4,0.0,0.0,0,968.2,0,1,"",95
"2023-11-05 03:27:00",7.2,6.5,0.0,0.0,0,968.2,1,2,"",95
"2023-11-05 03:28:00",7.2,6.5,0.0,0.0,0,968.2,1,2,"",95
"2023-11-05 03:29:00",7.2,6.5,0.0,0.0,0,968.3,1,2,"",95
"2023-11-05 03:30:00",7.2,6.5,0.0,0.0,0,968.3,0,1,"",95
"2023-11-05 03:31:00",7.2,6.5,0.0,0.0,0,968.3,1,2,"",95
"2023-11-05 03:32:00",7.2,6.5,0.0,0.0,0,968.4,1,2,"",95
"2023-11-05 03:33:00",7.2,6.5,0.0,0.0,0,968.4,1,3,"",95
"2023-11-05 03:34:00",7.3,6.6,0.0,0.0,0,968.4,1,2,"",95
"2023-11-05 03:35:00",7.3,6.6,0.0,0.0,0,968.4,0,1,"",95
"2023-11-05 03:36:00",7.3,6.6,0.0,0.0,0,968.4,1,2,"",95
"2023-11-05 03:37:00",7.3,6.6,0.0,0.0,0,968.5,1,3,"",95
"2023-11-05 03:38:00",7.3,6.6,0.0,0.0,0,968.5,2,3,"",95
"2023-11-05 03:39:00",7.4,6.7,0.0,0.0,0,968.5,1,2,"",95
"2023-11-05 03:40:00",7.4,6.7,0.0,0.0,0,968.6,1,3,"",95
"2023-11-05 03:41:00",7.4,6.7,0.0,0.0,0,968.6,1,2,"",95
"2023-11-05 03:42:00",7.4,6.7,0.0,0.0,0,968.6,1,2,"",95
"2023-11-05 03:43:00",7.4,6.7,0.0,0.0,0,968.7,1,1,"",95
"2023-11-05 03:44:00",7.4,6.7,0.0,0.0,0,968.8,1,2,"",95
"2023-11-05 03:45:00",7.4,6.7,0.0,0.0,0,968.8,2,2,"",95
"2023-11-05 03:46:00",7.4,6.7,0.0,0.0,0,968.8,0,2,"",95
"2023-11-05 03:47:00",7.5,6.8,0.0,0.0,0,968.8,1,2,"",95
"2023-11-05 03:48:00",7.5,6.8,0.0,0.0,0,968.9,2,3,"",95
"2023-11-05 03:49:00",7.5,6.8,0.0,0.0,0,969.0,1,2,"",95
"2023-11-05 03:50:00",7.6,6.9,0.0,0.0,0,969.0,1,2,"",95
"2023-11-05 03:51:00",7.6,6.9,0.0,0.0,0,969.0,1,2,"",95
"2023-11-05 03:52:00",7.6,6.9,0.0,0.0,0,969.1,1,3,"",95
"2023-11-05 03:53:00",7.6,6.9,0.0,0.0,0,969.1,1,3,"",95
"2023-11-05 03:54:00",7.6,6.9,0.0,0.0,0,969.1,1,3,"",95
"2023-11-05 03:55:00",7.6,6.9,0.0,0.0,0,969.1,1,3,"",95
"2023-11-05 03:56:00",7.7,6.9,0.0,0.0,0,969.2,0,2,"",95
"2023-11-05 03:57:00",7.7,6.9,0.0,0.0,0,969.3,1,3,"",95
"2023-11-05 03:58:00",7.7,6.9,0.0,0.0,0,969.3,1,2,"",95
"2023-11-05 03:59:00",7.7,6.9,0.0,0.0,0,969.3,1,2,"",95
"2023-11-05 04:00:00",7.7,7.1,0.0,0.0,0,969.4,1,4,6.7,96
"2023-11-05 04:01:00",7.8,7.2,0.0,0.0,0,969.4,1,1,"",96
"2023-11-05 04:02:00",7.8,7.2,0.0,0.0,0,969.4,1,2,"",96
"2023-11-05 04:03:00",7.8,7.2,0.0,0.0,0,969.5,1,3,"",96
"2023-11-05 04:04:00",7.8,7.2,0.0,0.0,0,969.5,1,2,"",96
"2023-11-05 04:05:00",7.8,7.2,0.0,0.0,0,969.6,2,4,6.8,96
"2023-11-05 04:06:00",7.8,7.2,0.0,0.0,0,969.5,0,1,"",96
"2023-11-05 04:07:00",7.8,7.2,0.0,0.0,0,969.6,1,2,"",96
"2023-11-05 04:08:00",7.9,7.3,0.0,0.0,0,969.6,1,2,"",96
"2023-11-05 04:09:00",7.9,7.1,0.0,0.0,0,969.7,1,3,"",95
"2023-11-05 04:10:00",7.9,7.3,0.0,0.0,0,969.7,0,1,"",96
"2023-11-05 04:11:00",7.9,7.1,0.0,0.0,0,969.8,1,2,"",95
"2023-11-05 04:12:00",7.9,7.1,0.0,0.0,0,969.8,1,2,"",95
"2023-11-05 04:13:00",7.9,7.1,0.0,0.0,0,969.9,2,3,"",95
"2023-11-05 04:14:00",7.9,7.1,0.0,0.0,0,969.9,0,1,"",95
"2023-11-05 04:15:00",7.9,7.1,0.0,0.0,0,969.9,1,3,"",95
"2023-11-05 04:16:00",8.0,7.2,0.0,0.0,0,969.9,2,3,"",95
"2023-11-05 04:17:00",8.0,7.2,0.0,0.0,0,969.9,1,2,"",95
"2023-11-05 04:18:00",8.1,7.3,0.0,0.0,0,969.9,2,2,"",95
"2023-11-05 04:19:00",8.0,7.2,0.0,0.0,0,970.0,1,3,"",95
"2023-11-05 04:20:00",8.1,7.3,0.0,0.0,0,970.0,1,2,"",95
"2023-11-05 04:21:00",8.1,7.3,0.0,0.0,0,970.1,1,3,"",95
"2023-11-05 04:22:00",8.1,7.3,0.0,0.0,0,970.1,0,1,"",95
"2023-11-05 04:23:00",8.1,7.3,0.0,0.0,0,970.2,1,2,"",95
"2023-11-05 04:24:00",8.1,7.5,0.0,0.0,0,970.2,0,1,"",96
"2023-11-05 04:25:00",8.1,7.5,0.0,0.0,0,970.2,1,2,"",96
"2023-11-05 04:26:00",8.1,7.5,0.0,0.0,0,970.2,1,2,"",96
"2023-11-05 04:27:00",8.1,7.5,0.0,0.0,0,970.2,1,2,"",96
"2023-11-05 04:28:00",8.2,7.6,0.0,0.0,0,970.3,1,3,"",96
"2023-11-05 04:29:00",8.2,7.6,0.0,0.0,0,970.4,3,6,6.5,96
"2023-11-05 04:30:00",8.2,7.6,0.0,0.0,0,970.3,1,2,"",96
"2023-11-05 04:31:00",8.2,7.6,0.0,0.0,0,970.4,1,2,"",96
"2023-11-05 04:32:00",8.2,7.6,0.0,0.0,0,970.4,1,2,"",96
"2023-11-05 04:33:00",8.2,7.6,0.0,0.0,0,970.5,1,2,"",96
"2023-11-05 04:34:00",8.2,7.6,0.0,0.0,0,970.5,1,2,"",96
"2023-11-05 04:35:00",8.2,7.6,0.0,0.0,0,970.5,1,2,"",96
"2023-11-05 04:36:00",8.2,7.6,0.0,0.0,0,970.5,1,2,"",96
"2023-11-05 04:37:00",8.2,7.6,0.0,0.0,0,970.5,1,2,"",96
"2023-11-05 04:38:00",8.2,7.6,0.0,0.0,0,970.6,1,2,"",96
"2023-11-05 04:39:00",8.2,7.4,0.0,0.0,0,970.6,0,1,"",95
"2023-11-05 04:40:00",8.2,7.6,0.0,0.0,0,970.6,1,3,"",96
"2023-11-05 04:41:00",8.2,7.4,0.0,0.0,0,970.6,1,2,"",95
"2023-11-05 04:42:00",8.2,7.6,0.0,0.0,0,970.6,0,1,"",96
"2023-11-05 04:43:00",8.3,7.5,0.0,0.0,0,970.7,1,3,"",95
"2023-11-05 04:44:00",8.3,7.7,0.0,0.0,0,970.7,1,2,"",96
"2023-11-05 04:45:00",8.3,7.5,0.0,0.0,0,970.7,0,1,"",95
"2023-11-05 04:46:00",8.3,7.5,0.0,0.0,0,970.8,1,2,"",95
"2023-11-05 04:47:00",8.3,7.5,0.0,0.0,0,970.8,0,1,"",95
"2023-11-05 04:48:00",8.3,7.5,0.0,0.0,0,970.8,1,4,7.4,95
"2023-11-05 04:49:00",8.3,7.5,0.0,0.0,0,970.9,1,5,7.0,95
"2023-11-05 04:50:00",8.3,7.5,0.0,0.0,0,971.0,1,2,"",95
"2023-11-05 04:51:00",8.3,7.5,0.0,0.0,0,971.0,1,2,"",95
"2023-11-05 04:52:00",8.3,7.5,0.0,0.0,0,971.0,1,2,"",95
"2023-11-05 04:53:00",8.3,7.5,0.0,0.0,0,971.1,1,3,"",95
"2023-11-05 04:54:00",8.3,7.5,0.0,0.0,0,971.1,0,1,"",95
"2023-11-05 04:55:00",8.3,7.5,0.0,0.0,0,971.2,0,1,"",95
"2023-11-05 04:56:00",8.3,7.5,0.0,0.0,0,971.2,1,1,"",95
"2023-11-05 04:57:00",8.3,7.5,0.0,0.0,0,971.2,1,2,"",95
"2023-11-05 04:58:00",8.3,7.5,0.0,0.0,0,971.3,1,2,"",95
"2023-11-05 04:59:00",8.3,7.5,0.0,0.0,0,971.3,1,2,"",95
"2023-11-05 05:00:00",8.3,7.5,0.0,0.0,0,971.3,1,3,"",95
"2023-11-05 05:01:00",8.3,7.5,0.0,0.0,0,971.4,1,2,"",95
"2023-11-05 05:02:00",8.3,7.5,0.0,0.0,0,971.4,1,2,"",95
"2023-11-05 05:03:00",8.3,7.5,0.0,0.0,0,971.4,0,1,"",95
"2023-11-05 05:04:00",8.4,7.6,0.0,0.0,0,971.5,1,2,"",95
"2023-11-05 05:05:00",8.4,7.6,0.0,0.0,0,971.5,1,2,"",95
"2023-11-05 05:06:00",8.3,7.5,0.0,0.0,0,971.5,1,2,"",95
"2023-11-05 05:07:00",8.4,7.6,0.0,0.0,0,971.5,0,1,"",95
"2023-11-05 05:08:00",8.4,7.6,0.0,0.0,0,971.5,0,1,"",95
"2023-11-05 05:09:00",8.4,7.6,0.0,0.0,0,971.6,0,2,"",95
"2023-11-05 05:10:00",8.4,7.6,0.0,0.0,0,971.6,0,1,"",95
"2023-11-05 05:11:00",8.4,7.6,0.0,0.0,0,971.6,2,3,"",95
"2023-11-05 05:12:00",8.4,7.8,0.0,0.0,0,971.7,1,2,"",96
"2023-11-05 05:13:00",8.4,7.8,0.0,0.0,0,971.7,1,3,"",96
"2023-11-05 05:14:00",8.4,7.6,0.0,0.0,0,971.7,1,3,"",95
"2023-11-05 05:15:00",8.4,7.8,0.0,0.0,0,971.7,1,2,"",96
"2023-11-05 05:16:00",8.4,7.8,0.0,0.0,0,971.8,2,4,7.5,96
"2023-11-05 05:17:00",8.4,7.8,0.0,0.0,0,971.8,1,3,"",96
"2023-11-05 05:18:00",8.5,7.9,0.0,0.0,0,971.8,1,2,"",96
"2023-11-05 05:19:00",8.5,7.9,0.0,0.0,0,971.9,1,2,"",96
"2023-11-05 05:20:00",8.5,7.9,0.0,0.0,0,972.0,1,2,"",96
"2023-11-05 05:21:00",8.5,7.9,0.0,0.0,0,972.0,1,2,"",96
"2023-11-05 05:22:00",8.5,7.9,0.0,0.0,0,972.1,1,2,"",96
"2023-11-05 05:23:00",8.5,7.9,0.0,0.0,0,972.1,1,2,"",96
"2023-11-05 05:24:00",8.5,7.9,0.0,0.0,0,972.2,1,2,"",96
"2023-11-05 05:25:00",8.5,7.9,0.0,0.0,0,972.1,1,2,"",96
"2023-11-05 05:26:00",8.5,7.9,0.0,0.0,0,972.2,1,2,"",96
"2023-11-05 05:27:00",8.5,7.9,0.0,0.0,0,972.2,1,2,"",96
"2023-11-05 05:28:00",8.5,7.9,0.0,0.0,0,972.3,2,3,"",96
"2023-11-05 05:29:00",8.5,7.9,0.0,0.0,0,972.2,1,2,"",96
"2023-11-05 05:30:00",8.6,8.0,0.0,0.0,0,972.3,2,3,"",96
"2023-11-05 05:31:00",8.6,8.0,0.0,0.0,0,972.3,2,3,"",96
"2023-11-05 05:32:00",8.5,7.9,0.0,0.0,0,972.4,2,3,"",96
"2023-11-05 05:33:00",8.6,8.0,0.0,0.0,0,972.5,2,4,7.7,96
"2023-11-05 05:34:00",8.6,8.0,0.0,0.0,0,972.5,2,4,7.7,96
"2023-11-05 05:35:00",8.6,8.0,0.0,0.0,0,972.6,1,4,7.7,96
"2023-11-05 05:36:00",8.6,8.0,0.0,0.0,0,972.6,1,2,"",96
"2023-11-05 05:37:00",8.6,8.0,0.0,0.0,0,972.6,1,2,"",96
"2023-11-05 05:38:00",8.6,8.0,0.0,0.0,0,972.7,1,1,"",96
"2023-11-05 05:39:00",8.6,8.0,0.0,0.0,0,972.7,1,2,"",96
"2023-11-05 05:40:00",8.6,7.8,0.0,0.0,0,972.8,1,2,"",95
"2023-11-05 05:41:00",8.6,8.0,0.0,0.0,0,972.8,1,2,"",96
"2023-11-05 05:42:00",8.6,8.0,0.0,0.0,0,972.8,1,2,"",96
"2023-11-05 05:43:00",8.6,8.0,0.0,0.0,0,972.9,1,3,"",96
"2023-11-05 05:44:00",8.6,8.0,0.0,0.0,0,972.9,1,3,"",96
"2023-11-05 05:45:00",8.6,8.0,0.0,0.0,0,972.9,0,2,"",96
"2023-11-05 05:46:00",8.6,7.8,0.0,0.0,0,972.9,1,3,"",95
"2023-11-05 05:47:00",8.6,7.8,0.0,0.0,0,973.0,2,3,"",95
"2023-11-05 05:48:00",8.7,7.9,0.0,0.0,0,973.1,1,1,"",95
"2023-11-05 05:49:00",8.6,7.8,0.0,0.0,0,973.1,1,2,"",95
"2023-11-05 05:50:00",8.7,7.9,0.0,0.0,0,973.1,1,2,"",95
"2023-11-05 05:51:00",8.7,7.9,0.0,0.0,0,973.1,1,4,7.9,95
"2023-11-05 05:52:00",8.7,7.9,0.0,0.0,0,973.2,2,3,"",95
"2023-11-05 05:53:00",8.7,7.9,0.0,0.0,0,973.3,2,2,"",95
"2023-11-05 05:54:00",8.7,7.9,0.0,0.0,0,973.3,1,2,"",95
"2023-11-05 05:55:00",8.7,7.9,0.0,0.0,0,973.3,1,2,"",95
"2023-11-05 05:56:00",8.7,7.9,0.0,0.0,0,973.4,1,2,"",95
"2023-11-05 05:57:00",8.7,7.9,0.0,0.0,0,973.4,2,3,"",95
"2023-11-05 05:58:00",8.7,7.9,0.0,0.0,0,973.5,1,2,"",95
"2023-11-05 05:59:00",8.7,7.9,0.0,0.0,0,973.5,3,6,7.1,95
"2023-11-05 06:00:00",8.7,7.9,0.0,0.0,0,973.5,1,2,"",95
"2023-11-05 06:01:00",8.7,7.9,0.0,0.0,0,973.5,1,2,"",95
"2023-11-05 06:02:00",8.7,7.9,0.0,0.0,0,973.5,1,2,"",95
"2023-11-05 06:03:00",8.7,7.9,0.0,0.0,0,973.5,1,2,"",95
"2023-11-05 06:04:00",8.7,7.9,0.0,0.0,0,973.5,1,2,"",95
"2023-11-05 06:05:00",8.7,7.9,0.0,0.0,0,973.6,1,2,"",95
"2023-11-05 06:06:00",8.7,7.9,0.0,0.0,0,973.6,2,3,"",95
"2023-11-05 06:07:00",8.7,7.9,0.0,0.0,0,973.7,2,3,"",95
"2023-11-05 06:08:00",8.7,7.9,0.0,0.0,0,973.7,1,3,"",95
"2023-11-05 06:09:00",8.7,7.9,0.0,0.0,0,973.7,1,1,"",95
"2023-11-05 06:10:00",8.7,7.9,0.0,0.0,0,973.7,0,2,"",95
"2023-11-05 06:11:00",8.7,7.9,0.0,0.0,0,973.7,1,2,"",95
"2023-11-05 06:12:00",8.7,7.9,0.0,0.0,0,973.7,0,2,"",95
"2023-11-05 06:13:00",8.7,7.9,0.0,0.0,0,973.8,2,4,7.9,95
"2023-11-05 06:14:00",8.7,7.9,0.0,0.0,0,973.8,2,3,"",95
"2023-11-05 06:15:00",8.7,7.9,0.0,0.0,0,973.8,2,2,"",95
"2023-11-05 06:16:00",8.7,7.9,0.0,0.0,0,973.8,1,3,"",95
"2023-11-05 06:17:00",8.7,7.9,0.0,0.0,0,973.9,0,1,"",95
"2023-11-05 06:18:00",8.7,7.9,0.0,0.0,0,973.8,2,3,"",95
"2023-11-05 06:19:00",8.7,7.9,0.0,0.0,0,973.9,2,4,7.9,95
"2023-11-05 06:20:00",8.7,7.9,0.0,0.0,0,974.0,1,2,"",95
"2023-11-05 06:21:00",8.7,7.9,0.0,0.0,0,974.1,2,2,"",95
"2023-11-05 06:22:00",8.7,7.9,0.0,0.0,0,974.1,1,2,"",95
"2023-11-05 06:23:00",8.7,7.9,0.0,0.0,0,974.1,1,1,"",95
"2023-11-05 06:24:00",8.7,7.9,0.0,0.0,0,974.1,1,1,"",95
"2023-11-05 06:25:00",8.7,7.9,0.0,0.0,0,974.1,1,2,"",95
"2023-11-05 06:26:00",8.7,7.9,0.0,0.0,0,974.2,1,2,"",95
"2023-11-05 06:27:00",8.7,7.9,0.0,0.0,0,974.2,1,3,"",95
"2023-11-05 06:28:00",8.7,7.9,0.0,0.0,0,974.3,1,2,"",95
"2023-11-05 06:29:00",8.7,7.9,0.0,0.0,0,974.2,1,2,"",95
"2023-11-05 06:30:00",8.7,7.9,0.0,0.0,0,974.3,1,2,"",95
"2023-11-05 06:31:00",8.7,7.9,0.0,0.0,0,974.4,1,3,"",95
"2023-11-05 06:32:00",8.7,7.9,0.0,0.0,0,974.4,1,2,"",95
"2023-11-05 06:33:00",8.7,7.9,0.0,0.0,0,974.4,1,3,"",95
"2023-11-05 06:34:00",8.7,7.9,0.0,0.0,0,974.4,1,3,"",95
"2023-11-05 06:35:00",8.6,7.8,0.0,0.0,0,974.5,1,2,"",95
"2023-11-05 06:36:00",8.6,7.8,0.0,0.0,0,974.6,1,3,"",95
"2023-11-05 06:37:00",8.6,7.8,0.0,0.0,0,974.6,1,2,"",95
"2023-11-05 06:38:00",8.6,7.8,0.0,0.0,0,974.6,1,3,"",95
"2023-11-05 06:39:00",8.6,7.8,0.0,0.0,0,974.6,1,2,"",95
"2023-11-05 06:40:00",8.6,7.8,0.0,0.0,0,974.7,1,2,"",95
"2023-11-05 06:41:00",8.6,7.8,0.0,0.0,0,974.7,1,2,"",95
"2023-11-05 06:42:00",8.6,7.8,0.0,0.0,0,974.7,1,2,"",95
"2023-11-05 06:43:00",8.6,7.8,0.0,0.0,0,974.8,1,2,"",95
"2023-11-05 06:44:00",8.6,7.8,0.0,0.0,0,974.8,2,3,"",95
"2023-11-05 06:45:00",8.6,7.8,0.0,0.0,0,974.7,2,3,"",95
"2023-11-05 06:46:00",8.6,7.8,0.0,0.0,0,974.8,1,2,"",95
"2023-11-05 06:47:00",8.6,7.8,0.0,0.0,0,974.8,1,3,"",95
"2023-11-05 06:48:00",8.6,7.8,0.0,0.0,0,974.8,2,3,"",95
"2023-11-05 06:49:00",8.6,7.8,0.0,0.0,0,974.8,2,3,"",95
"2023-11-05 06:50:00",8.6,7.8,0.0,0.0,0,974.9,1,3,"",95
"2023-11-05 06:51:00",8.6,7.8,0.0,0.0,0,974.9,1,3,"",95
"2023-11-05 06:52:00",8.6,7.8,0.0,0.0,0,975.0,1,3,"",95
"2023-11-05 06:53:00",8.5,7.7,0.0,0.0,0,975.1,3,4,7.6,95
"2023-11-05 06:54:00",8.5,7.7,0.0,0.0,0,975.0,1,3,"",95
"2023-11-05 06:55:00",8.5,7.7,0.0,0.0,0,975.1,1,3,"",95
"2023-11-05 06:56:00",8.5,7.7,0.0,0.0,0,975.1,2,3,"",95
"2023-11-05 06:57:00",8.5,7.7,0.0,0.0,0,975.2,2,3,"",95
"2023-11-05 06:58:00",8.5,7.7,0.0,0.0,0,975.3,2,3,"",95
"2023-11-05 06:59:00",8.5,7.7,0.0,0.0,0,975.3,2,4,7.6,95
"2023-11-05 07:00:00",8.5,7.7,0.0,0.0,0,975.4,1,3,"",95
"2023-11-05 07:01:00",8.4,7.6,0.0,0.0,0,975.4,1,2,"",95
"2023-11-05 07:02:00",8.4,7.6,0.0,0.0,0,975.4,1,4,7.5,95
"2023-11-05 07:03:00",8.5,7.7,0.0,0.0,0,975.5,2,2,"",95
"2023-11-05 07:04:00",8.4,7.6,0.0,0.0,0,975.6,2,2,"",95
"2023-11-05 07:05:00",8.4,7.6,0.0,0.0,0,975.7,1,2,"",95